Tracking 19638 objects as of 19-Apr-2019
HD Live streaming from Space Station
objects crossing your sky now

ECAMSAT

Track ECAMSAT now!
10-day predictions
ECAMSAT is classified as:


NORAD ID: 43019
Int'l Code: 1998-067NG
Perigee: 390.3 km
Apogee: 396.3 km
Inclination: 51.6 °
Period: 92.3 minutes
Semi major axis: 6764 km
RCS: Unknown
Launch date: November 20, 1998
Source: United States (US)
Launch site: TYURATAM MISSILE AND SPACE COMPLEX (TTMTR)

Uplink (MHz):
Downlink (MHz): 437.095
Beacon (MHz):
Mode: 1200bps AFSK
Call sign: KE6QLL
Status: Active

aabbcc
Your satellite tracking list
Your tracking list is empty




NASA's NSSDC Master Catalog

Two Line Element Set (TLE):
1 43019U 98067NG  19108.72244683  .00005743  00000-0  74463-4 0  9999
2 43019  51.6396 282.4313 0004433 233.5920 126.4664 15.60509736166206
Source of the keplerian elements: AMSAT